User: anonymous   Login
Location: Unspecified
(0.0000°N, 0.0000°E)
Time: 13:12:23
(UTC+02:00)
Language:

Cosmos 1953 Rocket - Orbit

View from above orbital plane
View from above orbital plane
View from above satellite
View from above satellite

Ground track
Ground track

The orbit data is extracted from the following two-line orbital elements,

1 19211U 88050B   14297.41466657  .00000615  00000-0  73313-4 0  3837
2 19211 082.5291 026.3949 0023202 065.1404 347.4627 14.82503694423526
Epoch (UTC): 24 October 2014 09:57:07
Eccentricity: 0.0023202
inclination: 82.5291°
perigee height: 605 km
apogee height: 637 km
right ascension of ascending node: 26.3949°
argument of perigee: 65.1404°
revolutions per day: 14.82503694
mean anomaly at epoch: 347.4627°
orbit number at epoch: 42352

The dashed part of the orbit path shows where the satellite is in the earth's shadow,  

DLR